Location: Zagreb
(45.8000°N, 16.0000°E)
Time: 06:55:24
(UTC+01:00)

BlueWalker 3 - Visible Passes

Search period start: 07 December 2022 00:00
Search period end: 17 December 2022 00:00
Orbit: 501 x 518 km, 53.2° (Epoch: 06 December)

Date Brightness Start Highest point End Pass type
(mag) Time Alt. Az. Time Alt. Az. Time Alt. Az.
07 Dec 2.8 17:07:58 10° NW 17:11:33 33° NNE 17:14:16 15° ENE visible
07 Dec 3.3 18:46:37 10° WNW 18:49:06 38° WNW 18:49:06 38° WNW visible
08 Dec 2.8 16:49:33 10° NW 16:53:10 34° NNE 16:56:45 10° E visible
08 Dec 2.1 18:28:12 10° WNW 18:31:50 70° WSW 18:31:50 70° WSW visible
09 Dec 2.1 18:09:48 10° WNW 18:13:42 70° SW 18:14:45 45° SSE visible
10 Dec 2.2 17:51:24 10° WNW 17:55:16 66° SW 17:57:54 19° SE visible
10 Dec 5.2 19:32:13 10° WSW 19:32:48 11° WSW 19:32:48 11° WSW visible
11 Dec 2.4 17:32:58 10° WNW 17:36:51 62° SW 17:40:40 10° SE visible
11 Dec 5.1 19:14:29 10° WSW 19:14:48 10° SW 19:15:09 10° SW visible
12 Dec 2.6 17:14:33 10° WNW 17:18:25 58° SW 17:22:14 10° SE visible
13 Dec 2.8 16:56:09 10° WNW 16:59:59 55° SW 17:03:46 10° SE visible
